Hovedside
METAR-TAF:

METAR-TAF

Lufthavner :

Leknes lufthavn

Leknes, Norge

breddegrad: 68-09N, lengdegrad: 013-37E, høyde over havet: 2 m

Gjeldene værobservasjon

Denne rapporten ble laget for 28 minutter siden, klokken 03:50 UTC
Vind 3 kt fra Øst-sørøst
Temperatur 1°C
Luftfuktighet 100%
Trykk 991 hPa
Sikt 10 km eller mer
Spredte skyer i en høyde av 1500 ft

METAR: ENLK 240350Z 12003KT 9999 SCT015 01/01 Q0991

Tid: 06:18 (04:18 UTC)


TAF: fraværende

Værobservasjoner og værvarsel for over 4000 flyplasser (METAR- og TAF-rapporter).

Tilgjengelige stasjoner er representert av de røde og gule prikkene på kartet.

Hold musepekeren over prikken for å se navnet på stasjonen.

Klikk så for å se værobservasjoner og -varsler.

For å forandre kartet kan du klikke på den grønne knappen med svart kryss for å zoome inn, på den grønne knappen med strek for å zoome ut, eller på de grønne pilene for å se tilstøtende kart.


METAR-TAF: